When you browse on this site, cookies collect data to enhance your experience and personalize the content and advertising you see.
Visit our Privacy Policy to learn more. By continuing to use the site, you agree to this use of cookies and data.
  • In Denmark
  • List of Countries
  • For 7 days
  • Water Temperature
  • Weather Map
  • Weather Widgets
  • user-avatar
    Login

    Hourly Weather Zaragoza

    Today, 2 June, Tuesday

    Time Temperature Precipitation Wind Pressure Humidity
    00:00 +22°C° 0 mm 3 mps 744 mmHg 77%
    01:00 +21°C° 0.1 mm 2 mps 744 mmHg 79%
    02:00 +20°C° 0.1 mm 2 mps 744 mmHg 81%
    03:00 +21°C° 0.1 mm 1 mps 743 mmHg 83%
    04:00 +21°C° 0 mm 1 mps 743 mmHg 81%
    05:00 +21°C° 0 mm 1 mps 743 mmHg 79%
    06:00 +21°C° 0 mm 1 mps 743 mmHg 78%
    07:00 +22°C° 0 mm 1 mps 743 mmHg 74%
    08:00 +23°C° 0 mm 1 mps 744 mmHg 70%
    09:00 +24°C° 0 mm 1 mps 744 mmHg 66%
    10:00 +25°C° 0 mm 1 mps 743 mmHg 62%
    11:00 +26°C° 0 mm 1 mps 743 mmHg 59%
    12:00 +27°C° 0 mm 1 mps 743 mmHg 55%
    13:00 +28°C° 0 mm 1 mps 742 mmHg 53%
    14:00 +28°C° 0 mm 1 mps 742 mmHg 51%
    15:00 +29°C° 0 mm 1 mps 742 mmHg 49%
    16:00 +29°C° 0 mm 1 mps 742 mmHg 49%
    17:00 +29°C° 0 mm 1 mps 741 mmHg 49%
    18:00 +29°C° 0 mm 1 mps 741 mmHg 50%
    19:00 +28°C° 0 mm 1 mps 741 mmHg 54%
    20:00 +27°C° 0 mm 1 mps 742 mmHg 58%
    21:00 +26°C° 0 mm 1 mps 742 mmHg 62%
    22:00 +25°C° 0 mm 1 mps 742 mmHg 63%
    23:00 +25°C° 0 mm 1 mps 741 mmHg 64%

    Tomorrow, 3 June, Wednesday

    Time Temperature Precipitation Wind Pressure Humidity
    00:00 +24°C° 0 mm 1 mps 741 mmHg 65%
    01:00 +24°C° 0.1 mm 1 mps 741 mmHg 70%
    02:00 +23°C° 0.1 mm 1 mps 740 mmHg 74%
    03:00 +22°C° 0.1 mm 1 mps 740 mmHg 78%
    04:00 +22°C° 0.1 mm 1 mps 740 mmHg 78%
    05:00 +22°C° 0.1 mm 1 mps 739 mmHg 78%
    06:00 +22°C° 0.1 mm 1 mps 739 mmHg 78%
    07:00 +23°C° 0 mm 1 mps 739 mmHg 73%
    08:00 +24°C° 0 mm 2 mps 739 mmHg 68%
    09:00 +25°C° 0 mm 2 mps 739 mmHg 63%
    10:00 +26°C° 0 mm 2 mps 738 mmHg 57%
    11:00 +28°C° 0 mm 3 mps 738 mmHg 51%
    12:00 +29°C° 0 mm 3 mps 737 mmHg 45%
    13:00 +30°C° 0 mm 4 mps 737 mmHg 43%
    14:00 +30°C° 0 mm 4 mps 736 mmHg 41%
    15:00 +30°C° 0 mm 4 mps 736 mmHg 39%
    16:00 +29°C° 0.4 mm 4 mps 736 mmHg 44%
    17:00 +28°C° 0.4 mm 4 mps 735 mmHg 49%
    18:00 +26°C° 0.4 mm 4 mps 735 mmHg 54%
    19:00 +25°C° 1.6 mm 5 mps 735 mmHg 62%
    20:00 +22°C° 1.6 mm 6 mps 736 mmHg 71%
    21:00 +20°C° 1.6 mm 8 mps 736 mmHg 79%
    22:00 +18°C° 1.6 mm 8 mps 736 mmHg 78%
    23:00 +17°C° 1.6 mm 8 mps 736 mmHg 77%

    Day after tomorrow, 4 June, Thursday

    Time Temperature Precipitation Wind Pressure Humidity
    00:00 +16°C° 1.6 mm 8 mps 735 mmHg 76%
    01:00 +16°C° 1.3 mm 7 mps 735 mmHg 78%
    02:00 +15°C° 1.3 mm 6 mps 735 mmHg 80%
    03:00 +15°C° 1.3 mm 5 mps 735 mmHg 82%
    04:00 +15°C° 0.3 mm 5 mps 735 mmHg 80%
    05:00 +15°C° 0.3 mm 5 mps 735 mmHg 77%
    06:00 +15°C° 0.3 mm 5 mps 735 mmHg 75%
    07:00 +16°C° 0.2 mm 6 mps 735 mmHg 70%
    08:00 +17°C° 0.2 mm 6 mps 735 mmHg 65%
    09:00 +19°C° 0.2 mm 6 mps 736 mmHg 60%
    10:00 +20°C° 0.1 mm 7 mps 736 mmHg 55%
    11:00 +21°C° 0.1 mm 8 mps 736 mmHg 50%
    12:00 +22°C° 0.1 mm 9 mps 736 mmHg 45%
    13:00 +22°C° 0 mm 10 mps 736 mmHg 44%
    14:00 +23°C° 0 mm 10 mps 735 mmHg 43%
    15:00 +23°C° 0 mm 11 mps 735 mmHg 42%
    16:00 +22°C° 0 mm 11 mps 735 mmHg 44%
    17:00 +22°C° 0 mm 11 mps 736 mmHg 45%
    18:00 +21°C° 0 mm 10 mps 736 mmHg 47%
    19:00 +19°C° 0 mm 10 mps 737 mmHg 52%
    20:00 +18°C° 0 mm 9 mps 738 mmHg 58%
    21:00 +17°C° 0 mm 9 mps 738 mmHg 63%
    22:00 +16°C° 0 mm 9 mps 739 mmHg 66%
    23:00 +16°C° 0 mm 9 mps 739 mmHg 68%

    5 June, Friday

    Time Temperature Precipitation Wind Pressure Humidity
    00:00 +15°C° 0 mm 9 mps 739 mmHg 71%
    01:00 +15°C° 0 mm 9 mps 739 mmHg 71%
    02:00 +15°C° 0 mm 8 mps 740 mmHg 71%
    03:00 +15°C° 0 mm 7 mps 740 mmHg 71%
    04:00 +15°C° 0 mm 7 mps 740 mmHg 71%
    05:00 +15°C° 0 mm 8 mps 740 mmHg 71%
    06:00 +15°C° 0 mm 8 mps 740 mmHg 70%
    07:00 +16°C° 0 mm 8 mps 740 mmHg 65%
    08:00 +18°C° 0 mm 8 mps 740 mmHg 60%
    09:00 +20°C° 0 mm 8 mps 740 mmHg 55%
    10:00 +21°C° 0 mm 8 mps 740 mmHg 52%
    11:00 +22°C° 0 mm 8 mps 740 mmHg 49%
    12:00 +23°C° 0 mm 9 mps 740 mmHg 47%
    13:00 +24°C° 0 mm 8 mps 740 mmHg 45%
    14:00 +24°C° 0 mm 8 mps 739 mmHg 44%
    15:00 +26°C° 0 mm 8 mps 739 mmHg 43%
    16:00 +26°C° 0 mm 7 mps 739 mmHg 45%
    17:00 +24°C° 0 mm 6 mps 739 mmHg 47%
    18:00 +23°C° 0 mm 6 mps 739 mmHg 49%
    19:00 +22°C° 0 mm 5 mps 740 mmHg 52%
    20:00 +21°C° 0 mm 4 mps 740 mmHg 55%
    21:00 +20°C° 0 mm 3 mps 741 mmHg 58%
    22:00 +19°C° 0 mm 2 mps 741 mmHg 60%
    23:00 +19°C° 0 mm 2 mps 741 mmHg 62%

    6 June, Saturday

    Time Temperature Precipitation Wind Pressure Humidity
    00:00 +18°C° 0 mm 2 mps 741 mmHg 65%
    01:00 +18°C° 0 mm 2 mps 740 mmHg 66%
    02:00 +18°C° 0 mm 2 mps 740 mmHg 68%
    03:00 +18°C° 0 mm 1 mps 740 mmHg 70%
    04:00 +18°C° 0 mm 1 mps 740 mmHg 69%
    05:00 +19°C° 0 mm 1 mps 740 mmHg 68%
    06:00 +19°C° 0 mm 1 mps 740 mmHg 67%
    07:00 +20°C° 0 mm 1 mps 740 mmHg 62%
    08:00 +22°C° 0 mm 1 mps 740 mmHg 57%
    09:00 +21°C° 0 mm 0 mps 740 mmHg 53%
    10:00 +25°C° 0 mm 1 mps 739 mmHg 49%
    11:00 +26°C° 0 mm 1 mps 739 mmHg 45%
    12:00 +28°C° 0 mm 1 mps 739 mmHg 41%
    13:00 +29°C° 0 mm 1 mps 739 mmHg 38%
    14:00 +29°C° 0 mm 2 mps 738 mmHg 36%
    15:00 +30°C° 0 mm 2 mps 738 mmHg 34%
    16:00 +28°C° 0.6 mm 3 mps 738 mmHg 45%
    17:00 +26°C° 0.6 mm 3 mps 738 mmHg 57%
    18:00 +22°C° 0.6 mm 3 mps 738 mmHg 68%
    19:00 +22°C° 0.9 mm 3 mps 738 mmHg 72%
    20:00 +21°C° 0.9 mm 2 mps 739 mmHg 75%
    21:00 +20°C° 0.9 mm 2 mps 739 mmHg 79%
    22:00 +20°C° 0.6 mm 2 mps 739 mmHg 80%
    23:00 +20°C° 0.6 mm 3 mps 739 mmHg 81%

    7 June, Sunday

    Time Temperature Precipitation Wind Pressure Humidity
    00:00 +19°C° 0.6 mm 3 mps 739 mmHg 82%
    01:00 +19°C° 0.3 mm 3 mps 739 mmHg 83%
    02:00 +18°C° 0.3 mm 3 mps 739 mmHg 83%
    03:00 +18°C° 0.3 mm 3 mps 739 mmHg 83%
    04:00 +18°C° 0 mm 4 mps 739 mmHg 82%
    05:00 +17°C° 0 mm 5 mps 739 mmHg 81%
    06:00 +17°C° 0 mm 6 mps 740 mmHg 79%
    07:00 +19°C° 0 mm 6 mps 740 mmHg 74%
    08:00 +20°C° 0 mm 7 mps 740 mmHg 68%
    09:00 +22°C° 0 mm 7 mps 740 mmHg 62%
    10:00 +22°C° 0 mm 8 mps 740 mmHg 59%
    11:00 +23°C° 0 mm 8 mps 740 mmHg 55%
    12:00 +24°C° 0 mm 8 mps 740 mmHg 51%
    13:00 +26°C° 0 mm 9 mps 740 mmHg 49%
    14:00 +26°C° 0 mm 9 mps 740 mmHg 46%
    15:00 +26°C° 0 mm 9 mps 740 mmHg 43%
    16:00 +24°C° 0 mm 9 mps 741 mmHg 45%
    17:00 +23°C° 0 mm 9 mps 741 mmHg 47%
    18:00 +22°C° 0 mm 10 mps 741 mmHg 49%
    19:00 +19°C° 0 mm 9 mps 742 mmHg 53%
    20:00 +18°C° 0 mm 9 mps 743 mmHg 58%
    21:00 +16°C° 0 mm 9 mps 743 mmHg 62%
    22:00 +16°C° 0 mm 9 mps 743 mmHg 62%
    23:00 +15°C° 0 mm 8 mps 743 mmHg 63%
    Show more